{"data":{"norad_id":53663,"epoch":"2026-09-20T14:24:45.893952Z","epoch_age_seconds":72983,"freshness":"FRESH","line1":"1 53663U 22105R   26263.60053118  .00001010  00000+0  33610-4 0  9994","line2":"2 53663  97.2821 140.3411 0003317  80.3627 279.7990 15.33450087222755","mean_motion":15.33450087,"eccentricity":0.0003317,"inclination_deg":97.2821,"raan_deg":140.3411,"arg_perigee_deg":80.3627,"mean_anomaly_deg":279.799,"bstar":3.361e-5,"rev_number":22275,"period_min":93.905893136514,"perigee_km":463.25799549348,"apogee_km":467.79808288048,"semimajor_km":6843.665039187,"source":"CELESTRAK","updated_at":"2026-09-21T09:00:32.952467Z"}}